www.pogodaiklimat.ru

Погода и климат >> Архив погоды >> Россия >> Приморский край >> Ольга


ПОГОДА в Ольге

  • Прогноз погоды в Ольге
  • Монитор погоды в Ольге

АРХИВ ПОГОДЫ в Ольге

Время (UTC), дата Ветер
(напр.,м/с)
 
Видим.   Явления Облачность Т
(С)
Тd
(С)
f
(%)
Тe
(С)
Тes
(С)
Комфортность P
(гПа)
Po
(гПа)
Тmin
(С)
Tmax
(С)
R
(мм)
R24
(мм)
S
(см)
15 9.09 СЗ 1 10 км ясно +14.0 +13.2 95 +14 +14 1010.4 1008.0
18 9.09 В 1 10 км ясно +10.8 +10.3 97 +10 +10 1013.1 1010.7
21 9.09 СВ 1 50 км 8/3 1000 м
[Sc Ac trans Ci fib]
+10.4 +9.8 96 +10 +10 1013.0 1010.7 +10.2
00 10.09 З 3 50 км 3/0
[Ac lent]
+21.6 +7.4 40 +23 +27 комфорт 1014.0 1011.7
03 10.09 З 3 50 км 4 балла +24.9 +5.6 29 +25 +31 комфорт 1014.3 1012.0
06 10.09 Ю 2 50 км 9 баллов +22.1 +9.9 46 +24 +24 комфорт 1013.0 1010.7
09 10.09 СВ 1 50 км 10/4 1000 м
[Sc Ac trans]
+17.9 +14.8 82 +19 +19 1015.7 1013.3 +26.9
12 10.09 штиль 0 10 км 10/0
[Ac und]
+14.9 +14.0 94 +15 +15 1016.3 1014.0
15 10.09 СВ 1 10 км 10 баллов +13.3 +12.7 96 +13 +13 1017.1 1014.7
18 10.09 штиль 0 10 км 10 баллов +13.1 +12.5 96 +13 +13 1017.1 1014.7
21 10.09 штиль 0 50 км 10/0
[Ac und]
+13.1 +12.4 96 +13 +13 1016.6 1014.3 +12.8
00 11.09 ЮЗ 1 50 км 10/3 1000 м
[Sc Ac trans]
+17.7 +12.2 70 +19 +21 1016.7 1014.4
03 11.09 С 2 50 км 7 баллов +21.9 +8.7 43 +23 +27 комфорт 1015.6 1013.3
06 11.09 З 4 50 км 2 балла +21.4 +5.7 36 +22 +25 комфорт 1015.6 1013.3
09 11.09 СЗ 2
{10}
50 км 1/1 1000 м
[Sc diur, vesp]
+18.0 +5.5 44 +19 +19 1016.1 1013.8 +23.1
12 11.09 СЗ 3 10 км 1/0
[Ac trans]
+15.6 +5.5 51 +15 +15 1017.1 1014.8
15 11.09 С 2 10 км 4 балла +14.1 +6.0 58 +14 +14 1018.4 1016.0
18 11.09 В 1 10 км ясно +9.7 +6.4 80 +9 +9 1018.4 1016.0
21 11.09 штиль 0 50 км ясно +6.9 +5.8 93 +6 +6 1019.2 1016.8 +6.9
00 12.09 С 2 50 км ясно +18.5 +5.8 43 +19 +26 1019.3 1017.0 +6.7
03 12.09 С 2 50 км 1 балл +22.0 +4.1 31 +22 +33 комфорт 1019.6 1017.3
06 12.09 Ю 3 50 км 1 балл +20.4 +8.7 47 +22 +27 комфорт 1018.4 1016.0
09 12.09 Ю 1 50 км 8/0
[Ac trans Ci fib]
+16.7 +11.7 72 +18 +18 1018.2 1015.9 +22.8
12 12.09 штиль 0 10 км 6/0
[Ci fib]
+10.6 +9.8 95 +10 +10 1020.1 1017.8
15 12.09 штиль 0 10 км 2 балла +7.4 +6.8 96 +6 +6 1021.2 1018.7
21 12.09 СВ 1 50 км 1/0
[Ci fib]
+4.0 +3.6 97 +2 +2 1019.6 1017.2 +3.8
00 13.09 ЮЗ 1 50 км ясно +15.3 +10.8 75 +16 +23 1020.0 1017.7
03 13.09 Ю 4 50 км 2 балла +19.7 +12.0 61 +21 +28 комфорт 1018.4 1016.0
06 13.09 Ю 4 50 км 9 баллов +19.1 +13.3 69 +20 +21 1018.4 1016.0
09 13.09 Ю 3 50 км 9/4 300 м
[Sc Ac trans Ci fib]
+16.9 +13.2 79 +17 +17 1016.2 1013.9 +20.7
12 13.09 штиль 0 10 км 9/1 1000 м
[Sc Ac trans Ci fib]
+12.1 +11.3 95 +11 +11 1016.1 1013.8
15 13.09 штиль 0 10 км 9 баллов +11.3 +10.8 97 +11 +11 1015.7 1013.3
18 13.09 СЗ 1 10 км 10 баллов +12.2 +11.6 96 +12 +12 1013.1 1010.7
21 13.09 СВ 1 50 км 10/1 300 м
[St Ac trans]
+15.2 +13.7 91 +16 +16 1011.2 1008.9 +11.0
00 14.09 ЮЗ 1 10 км слаб. ливневой дождь 10/6 600 м
[Cb cap Ac trans]
+15.1 +14.0 93 +16 +17 1011.5 1009.2
03 14.09 ЮЗ 1 4000 м слаб. ливневой дождь 10 баллов +15.4 +14.4 94 +16 +16 1011.7 1009.3
06 14.09 ЮЗ 1 20 км 10 баллов +16.9 +15.4 91 +18 +18 1010.4 1008.0
09 14.09 штиль 0 10 км слаб. ливневой дождь 10/10 300 м
[Cb cap]
+16.7 +15.8 94 +17 +17 1010.7 1008.4 +17.4 6
12 14.09 штиль 0 4000 м туман на расстоянии {ливн. осадки} 3/0
[Ac trans]
+13.9 +13.4 97 +13 +13 1012.1 1009.8
15 14.09 В 1 10 км 2 балла +10.9 +10.6 98 +10 +10 1013.1 1010.7
18 14.09 штиль 0 10 км 1 балл +7.5 +7.4 99 +6 +6 1014.5 1012.0
21 14.09 штиль 0 20 км 4/0
[Ac trans Ci fib]
+7.1 +6.9 99 +6 +6 1014.6 1012.2 +6.3 2
00 15.09 ЮЗ 1 50 км 1/0
[Ac trans]
+17.0 +11.4 70 +18 +25 1015.2 1012.9
03 15.09 СВ 3 50 км ясно +22.0 +4.5 32 +22 +32 комфорт 1015.6 1013.3
06 15.09 В 2 50 км ясно +21.2 +4.7 34 +22 +28 комфорт 1014.3 1012.0
09 15.09 штиль 0 50 км ясно +14.1 +10.7 80 +14 +14 1013.1 1010.8 +22.6
12 15.09 штиль 0 10 км 5/0
[Ac trans Ci fib]
+7.7 +7.0 95 +7 +7 1014.0 1011.7
15 15.09 штиль 0 10 км 9 баллов +5.6 +5.2 97 +4 +4 1014.5 1012.0
18 15.09 СВ 1 10 км 10 баллов +5.0 +4.7 98 +3 +3 1013.2 1010.7
21 15.09 штиль 0 50 км 10/0
[Ac trans]
+5.7 +5.5 99 +5 +5 1012.2 1009.8 +4.5
00 16.09 штиль 0 50 км 9/0
[Ac trans Ci fib]
+13.1 +10.1 82 +13 +18 1011.5 1009.2
03 16.09 ЮЗ 2 50 км 2 балла +22.3 +8.8 42 +24 +33 комфорт 1010.3 1008.0
06 16.09 ЮВ 2 50 км 1 балл +21.5 +6.2 37 +22 +28 комфорт 1010.3 1008.0
09 16.09 СЗ 1 50 км ясно +18.9 +11.0 60 +21 +21 комфорт 1010.3 1008.0 +24.0

 

Местоположение метеостанции Ольга (Приморский край, Россия): широта 43.75 долгота 135.30 высота над уровнем моря 20 м.

В архиве по умолчанию представлена погода в Ольге за последнюю неделю. Архивные данные за месяц целиком и за предыдущие месяцы, начиная с января 2011 года, Вы можете получить, выбрав интересующий диапазон дат из раскрывающегося списка и нажав кнопку "Ввод!".


*Определитесь, кто Вы:
робот инопланетянин человек

Внимание! Время в таблицах - всемирное. Для получения местного времени необходимо прибавить поправку, которая равна 10 ч.

Смотрите также архив погоды в соседних городах и на ближайших метеорологических станциях:

Погода в Дальнегорске (Приморский край, Россия) (31 км)
Погода в Богополе (Приморский край, Россия) (56 км)
Погода в Кавалерово (Приморский край, Россия) (61 км)
Погода в Рудной Пристани (Приморский край, Россия) (80 км)
Погода в Лучегорске (Приморский край, Россия) (81 км)
Погода в Лазо (Приморский край, Россия) (127 км)
Погода в Чугуевке (Приморский край, Россия) (128 км)
Погода в Преображении (Приморский край, Россия) (148 км)
Погода в Тернее (Приморский край, Россия) (173 км)
Погода в Анучино (Приморский край, Россия) (186 км)

Пояснения к столбцам:

Ветер - указаны скорость ветра в м/с - средняя за 10 мин, порывы в срок и между сроками (в фигурных скобках) и направление, откуда дует ветер: С - северный, СВ - северо-восточный, В - восточный, ЮВ - юго-восточный, Ю - южный, ЮЗ - юго-западный, З - западный, СЗ - северо-западный.
Видимость - горизонтальная дальность видимости в метрах или километрах. При видимости от 1 до 10 км при отсутствии осадков обычно наблюдается дымка, при ухудшении видимости до 1 км и менее - туман. В сухую погоду видимость может ухудшаться дымом, пылью или мглою.
Явления - указаны атмосферные явления, наблюдавшиеся в срок или в последний час перед сроком; фигурными скобками обозначены явления, наблюдавшиеся между сроками (за 1-3 часа до срока); квадратными скобками обозначены град или гололедные отложения с указанием их диаметра в мм.
Облачность - указаны через наклонную черту общая и нижняя облачность в баллах и высота нижней границы облаков в метрах; квадратными скобками обозначены формы облаков: Ci - перистые, Cs - перисто-слоистые, Cc - перисто-кучевые, Ac - высококучевые, As - высокослоистые, Sc - слоисто-кучевые, Ns - слоисто-дождевые, Cu - кучевые, Cb - кучево-дождевые. Подробнее классификацию облаков см. в Атласе облаков (PDF).
T - Температура воздуха - температура, измеренная на высоте 2 м над землей.
Td - Температура точки росы - температура, при понижении до которой содержащийся в воздухе водяной пар достигнет насыщения.
f - Относительная влажность воздуха - влажноcть воздуха, измеренная на высоте 2 м над землей.
Te - Эффективная температура - температура, которую ощущает одетый по сезону человек в тени. Характеристика душности погоды. При расчете учитывается влияние влажности воздуха и скорости ветра на теплоощущения человека.
Tes - Эффективная температура на солнце - температура, которую ощущает человек, с поправкой на солнечный нагрев. Характеристика знойности погоды. Зависит от высоты солнца над горизонтом, облачности и скорости ветра. Ночью, в пасмурную погоду, а также при ветре 12 м/с и более поправка равна нулю.
P - Атмосферное давление - приведенное к уровню моря атмосферное давление.
Po - Атмосферное давление - измеренное на уровне метеостанции атмосферное давление.
Tmin - Минимальная температура - минимум температуры воздуха на высоте 2 м над землей.
Tmax - Максимальная температура - максимум температуры воздуха на высоте 2 м над землей.
R - Количество осадков - Количество выпавших осадков за период времени, мм. При наведении курсора мыши на число - период времени, за который выпало указанное количество осадков.
R24 - Количество осадков - Количество выпавших осадков за 24 часа, мм.
S - Снежный покров - Высота снежного покрова, см. При наведении курсора мыши на число - состояние снежного покрова и степень покрытия местности в баллах.